Location: LDNL
(36.4545°S, 141.6685°E)
Time: 03:52:29
(UTC+11:00)

A-11 Canister half - Pass Details

Date: 17 August 2022
Orbit: 1524 x 1684 km, 47.3° (Epoch: 05 October)

Event Time Altitude Azimuth Distance (km) Brightness Sun altitude
Rises 00:02:47 0° 240° (WSW) 4,707 11.8 -65.9°
Enters shadow 00:03:51 - 241° (WSW) 4,376 11.6 -65.9°
Reaches altitude 10° 00:05:58 10° 245° (WSW) 3,733 - -66.1°
Maximum altitude 00:14:45 45° 314° (NW) 2,036 - -66.6°
Drops below altitude 10° 00:23:45 10° 22° (NNE) 3,814 - -66.9°
Sets 00:27:04 0° 28° (NNE) 4,817 - -67.0°
